Date String (YYYY-MM-DD hh:mm:ss) UTC,Instrument flags,absolute air pressure of the measurement (hPa),sample flow rate (lpm),inlet stack bypass flow (lpm),air temperature of the measurement (°C),ambient temperature measured by the external sensor (°C),aerosol sample conditioner tube jacket temperature (°C),OPC LED temperature (°C),internal box temperature (°C),relative humidity of the measurement (%),span deviation,mass concentration of particles derived from Lorenz-Mie calculation of OPC scattering (μg/m³),mass concentration of particles derived from Lorenz-Mie calculation of OPC scattering (μg/m³),mass concentration of particles derived from Lorenz-Mie calculation of OPC scattering (μg/m³)
DateTimeUTC,F1_M11,P_M11,Q1_M11,Q2_M11,T1_M11,T2_M11,T3_M11,T4_M11,T5_M11,U1_M11,ZSPAN_M11,X2_M11,X0_M11,X1_M11
2023-08-19 23:00:00,SystemResetWarning,0833.3,5.00,000.00,027.6,025.7,000.0,035.9,029.4,29.9,0000.0,0003.36,0010.41,0002.61
2023-08-19 23:01:00,SystemResetWarning,0833.2,5.00,000.00,027.7,026.0,000.0,035.9,029.5,29.8,0000.0,0003.32,0009.97,0002.61
2023-08-19 23:02:00,SystemResetWarning,0833.1,4.99,000.00,027.7,025.5,000.0,035.8,029.4,29.5,0000.0,0003.33,0010.32,0002.61
2023-08-19 23:03:00,SystemResetWarning,0833.1,4.99,000.00,027.6,024.1,000.0,035.8,029.1,29.1,0000.0,0003.34,0010.92,0002.61
2023-08-19 23:04:00,SystemResetWarning,0833.3,5.01,000.00,027.6,023.9,000.0,035.7,029.1,29.2,0000.0,0003.37,0010.98,0002.60
2023-08-19 23:05:00,SystemResetWarning,0832.9,5.01,000.00,027.5,024.3,000.0,035.7,028.9,29.6,0000.0,0003.39,0010.71,0002.61
2023-08-19 23:06:00,SystemResetWarning,0833.0,4.99,000.00,027.5,024.7,000.0,035.8,029.0,30.5,0000.0,0003.41,0009.88,0002.61
2023-08-19 23:07:00,SystemResetWarning,0833.4,5.00,000.00,027.5,025.2,000.0,035.8,029.1,30.9,0000.0,0003.41,0009.51,0002.61
2023-08-19 23:08:00,SystemResetWarning,0833.0,5.01,000.00,027.6,025.6,000.0,035.8,029.3,30.6,0000.0,0003.41,0009.08,0002.61
2023-08-19 23:09:00,SystemResetWarning,0833.0,4.99,000.00,027.6,026.0,000.0,035.9,029.4,31.1,0000.0,0003.43,0008.38,0002.60
2023-08-19 23:10:00,SystemResetWarning,0833.2,5.00,000.00,027.7,026.3,000.0,035.9,029.5,32.0,0000.0,0003.45,0008.17,0002.57
2023-08-19 23:11:00,SystemResetWarning,0833.2,4.99,000.00,027.7,025.8,000.0,035.9,029.4,31.8,0000.0,0003.41,0008.09,0002.55
2023-08-19 23:12:00,SystemResetWarning,0833.1,5.00,000.00,027.7,024.4,000.0,035.8,029.2,31.2,0000.0,0003.42,0008.15,0002.53
2023-08-19 23:13:00,SystemResetWarning,0833.1,5.00,000.00,027.6,024.1,000.0,035.7,029.1,31.0,0000.0,0003.38,0007.49,0002.50
2023-08-19 23:14:00,SystemResetWarning,0833.3,5.01,000.00,027.6,024.4,000.0,035.8,029.1,32.3,0000.0,0003.35,0006.75,0002.50
2023-08-19 23:15:00,SystemResetWarning,0833.1,5.00,000.00,027.6,024.8,000.0,035.8,029.1,33.3,0000.0,0003.33,0006.69,0002.51
2023-08-19 23:16:00,SystemResetWarning,0833.1,5.00,000.00,027.6,025.2,000.0,035.8,029.2,33.5,0000.0,0003.35,0006.97,0002.51
2023-08-19 23:17:00,SystemResetWarning,0833.0,5.00,000.00,027.6,025.7,000.0,035.8,029.3,33.6,0000.0,0003.35,0007.75,0002.51
2023-08-19 23:18:00,SystemResetWarning,0833.1,4.97,000.00,027.7,026.1,000.0,035.9,029.5,34.9,0000.0,0003.38,0007.83,0002.51
2023-08-19 23:19:00,SystemResetWarning,0833.1,5.04,000.00,027.8,025.5,000.0,035.9,029.5,35.2,0000.0,0003.38,0007.72,0002.53
2023-08-19 23:20:00,SystemResetWarning,0833.1,4.99,000.00,028.0,024.2,000.0,035.8,029.2,34.6,0000.0,0003.35,0007.49,0002.54
2023-08-19 23:21:00,SystemResetWarning,0833.2,4.99,000.00,028.1,024.0,000.0,035.8,029.2,35.0,0000.0,0003.34,0007.49,0002.54
2023-08-19 23:22:00,SystemResetWarning,0833.0,5.01,000.00,028.3,024.3,000.0,035.8,029.3,35.0,0000.0,0003.32,0007.52,0002.54
2023-08-19 23:23:00,SystemResetWarning,0832.9,5.01,000.00,028.5,024.7,000.0,035.9,029.4,35.0,0000.0,0003.32,0007.64,0002.57
2023-08-19 23:24:00,SystemResetWarning,0833.0,5.00,000.00,028.7,025.2,000.0,036.0,029.6,33.7,0000.0,0003.36,0008.26,0002.59
2023-08-19 23:25:00,SystemResetWarning,0832.9,4.99,000.00,028.9,025.6,000.0,036.1,029.7,31.8,0000.0,0003.37,0008.24,0002.61
2023-08-19 23:26:00,SystemResetWarning,0832.9,5.01,000.00,029.1,026.0,000.0,036.2,029.8,30.8,0000.0,0003.37,0008.21,0002.60
2023-08-19 23:27:00,SystemResetWarning,0832.8,4.99,000.00,029.2,025.5,000.0,036.3,029.7,29.7,0000.0,0003.32,0008.03,0002.60
2023-08-19 23:28:00,SystemResetWarning,0832.8,4.99,000.00,029.2,024.1,000.0,036.3,029.4,30.2,0000.0,0003.32,0007.34,0002.61
2023-08-19 23:29:00,SystemResetWarning,0832.7,5.02,000.00,029.2,023.8,000.0,036.3,029.3,29.6,0000.0,0003.28,0007.12,0002.61
2023-08-19 23:30:00,SystemResetWarning,0832.8,5.01,000.00,029.1,024.2,000.0,036.4,029.2,29.0,0000.0,0003.24,0006.86,0002.60
2023-08-19 23:31:00,SystemResetWarning,0832.7,4.99,000.00,029.0,024.6,000.0,036.5,029.3,29.3,0000.0,0003.23,0006.79,0002.62
2023-08-19 23:32:00,SystemResetWarning,0832.9,5.00,000.00,029.0,025.1,000.0,036.6,029.4,28.8,0000.0,0003.22,0006.65,0002.64
2023-08-19 23:33:00,SystemResetWarning,0833.2,5.00,000.00,029.0,025.5,000.0,036.7,029.6,29.9,0000.0,0003.26,0006.59,0002.67
2023-08-19 23:34:00,SystemResetWarning,0833.4,5.01,000.00,029.1,026.0,000.0,036.7,029.7,30.4,0000.0,0003.29,0006.73,0002.69
2023-08-19 23:35:00,SystemResetWarning,0833.2,5.00,000.00,029.1,026.3,000.0,036.8,029.8,30.1,0000.0,0003.26,0007.33,0002.71
2023-08-19 23:36:00,SystemResetWarning,0833.0,4.98,000.00,029.1,025.9,000.0,036.8,029.7,30.1,0000.0,0003.28,0007.34,0002.71
2023-08-19 23:37:00,SystemResetWarning,0833.0,5.00,000.00,029.1,024.5,000.0,036.7,029.5,30.2,0000.0,0003.31,0007.40,0002.74
2023-08-19 23:38:00,SystemResetWarning,0833.0,5.00,000.00,029.0,024.0,000.0,036.6,029.4,30.0,0000.0,0003.34,0007.46,0002.75
2023-08-19 23:39:00,SystemResetWarning,0833.2,5.01,000.00,028.9,024.3,000.0,036.7,029.3,29.4,0000.0,0003.35,0007.51,0002.77
2023-08-19 23:40:00,SystemResetWarning,0833.2,5.00,000.00,028.8,024.7,000.0,036.7,029.3,28.7,0000.0,0003.40,0007.78,0002.79
2023-08-19 23:41:00,SystemResetWarning,0833.1,5.00,000.00,028.8,025.1,000.0,036.7,029.5,29.0,0000.0,0003.49,0009.11,0002.82
2023-08-19 23:42:00,SystemResetWarning,0833.0,5.00,000.00,028.8,025.6,000.0,036.8,029.6,28.9,0000.0,0003.54,0009.28,0002.83
2023-08-19 23:43:00,SystemResetWarning,0833.0,5.01,000.00,028.8,026.0,000.0,036.8,029.7,29.1,0000.0,0003.55,0009.87,0002.84
2023-08-19 23:44:00,SystemResetWarning,0833.0,4.99,000.00,028.8,025.6,000.0,036.7,029.7,29.4,0000.0,0003.56,0009.98,0002.86
2023-08-19 23:45:00,SystemResetWarning,0833.2,4.99,000.00,028.8,024.3,000.0,036.7,029.4,30.0,0000.0,0003.59,0010.39,0002.89
2023-08-19 23:46:00,SystemResetWarning,0833.5,5.00,000.00,028.7,023.9,000.0,036.6,029.3,29.7,0000.0,0003.61,0009.42,0002.89
2023-08-19 23:47:00,SystemResetWarning,0833.4,5.01,000.00,028.6,024.2,000.0,036.6,029.2,29.6,0000.0,0003.59,0009.35,0002.92
2023-08-19 23:48:00,SystemResetWarning,0833.3,5.00,000.00,028.5,024.6,000.0,036.6,029.3,29.7,0000.0,0003.57,0009.27,0002.94
2023-08-19 23:49:00,SystemResetWarning,0833.1,5.00,000.00,028.5,025.1,000.0,036.6,029.4,29.2,0000.0,0003.59,0009.72,0002.95
2023-08-19 23:50:00,SystemResetWarning,0833.0,5.00,000.00,028.5,025.5,000.0,036.6,029.6,29.5,0000.0,0003.57,0010.12,0002.94
2023-08-19 23:51:00,SystemResetWarning,0833.0,5.00,000.00,028.5,026.0,000.0,036.7,029.7,29.7,0000.0,0003.57,0010.45,0002.94
2023-08-19 23:52:00,SystemResetWarning,0833.0,5.00,000.00,028.6,026.2,000.0,036.7,029.7,30.2,0000.0,0003.55,0009.60,0002.92
2023-08-19 23:53:00,SystemResetWarning,0833.0,4.98,000.00,028.6,025.1,000.0,036.6,029.5,30.2,0000.0,0003.52,0009.55,0002.90
2023-08-19 23:54:00,SystemResetWarning,0833.2,5.00,000.00,028.5,024.0,000.0,036.5,029.2,31.0,0000.0,0003.51,0009.00,0002.88
2023-08-19 23:55:00,SystemResetWarning,0833.1,5.02,000.00,028.4,024.0,000.0,036.4,029.2,31.0,0000.0,0003.48,0009.32,0002.84
2023-08-19 23:56:00,SystemResetWarning,0833.3,4.99,000.00,028.3,024.4,000.0,036.5,029.1,32.2,0000.0,0003.45,0009.03,0002.77
2023-08-19 23:57:00,SystemResetWarning,0833.3,4.99,000.00,028.3,024.8,000.0,036.5,029.2,32.6,0000.0,0003.43,0008.93,0002.73
2023-08-19 23:58:00,SystemResetWarning,0833.0,5.01,000.00,028.3,025.3,000.0,036.5,029.4,33.1,0000.0,0003.43,0008.95,0002.68
2023-08-19 23:59:00,SystemResetWarning,0833.0,5.00,000.00,028.3,025.7,000.0,036.5,029.6,33.4,0000.0,0003.41,0009.26,0002.62
